WYE297 KDEN-KTEX

Flight info

Callsign WYE297
Flight time 0h 43m
Altitude 32000
Route BAYLR6 TEHRU HERRM/N0413F310 ETL
Aircraft CRJ7/M-SDFGIRWY/S

Departure

Time 2026-05-08 20:52
Airport Denver International Airport (KDEN)

Arrival

Time 2026-05-08 21:36
Airport Telluride Regional Airport (KTEX)
Time Latitude Longitude Altitude Speed Heading
2026-05-08 20:35 39.85374 -104.66621 5381 ft 0 kts 317°
2026-05-08 20:42 39.85369 -104.66615 5382 ft 2 kts 317°
2026-05-08 20:42 39.85357 -104.66600 5382 ft 2 kts 316°
2026-05-08 20:43 39.85345 -104.66585 5382 ft 2 kts 314°
2026-05-08 20:43 39.85335 -104.66569 5383 ft 2 kts 310°
2026-05-08 20:43 39.85323 -104.66558 5384 ft 1 kts 349°
2026-05-08 20:43 39.85320 -104.66557 5384 ft 0 kts 359°
2026-05-08 20:45 39.85330 -104.66557 5384 ft 3 kts 359°
2026-05-08 20:45 39.85358 -104.66558 5383 ft 5 kts 359°
2026-05-08 20:45 39.85396 -104.66558 5383 ft 6 kts 359°
2026-05-08 20:45 39.85438 -104.66558 5383 ft 6 kts
2026-05-08 20:46 39.85488 -104.66577 5383 ft 9 kts 336°
2026-05-08 20:46 39.85565 -104.66572 5381 ft 14 kts 38°
2026-05-08 20:46 39.85585 -104.66460 5383 ft 11 kts 89°
2026-05-08 20:46 39.85594 -104.66373 5383 ft 11 kts 55°
2026-05-08 20:47 39.85682 -104.66352 5385 ft 16 kts 359°
2026-05-08 20:47 39.85800 -104.66349 5383 ft 18 kts
2026-05-08 20:47 39.85927 -104.66347 5383 ft 19 kts
2026-05-08 20:47 39.86061 -104.66345 5381 ft 21 kts
2026-05-08 20:48 39.86215 -104.66342 5377 ft 22 kts
2026-05-08 20:48 39.86369 -104.66338 5378 ft 22 kts
2026-05-08 20:48 39.86523 -104.66335 5375 ft 22 kts
2026-05-08 20:48 39.86679 -104.66338 5373 ft 23 kts
2026-05-08 20:49 39.86842 -104.66334 5370 ft 24 kts
2026-05-08 20:49 39.87013 -104.66332 5367 ft 25 kts 359°
2026-05-08 20:49 39.87181 -104.66331 5364 ft 25 kts
2026-05-08 20:49 39.87353 -104.66329 5361 ft 25 kts 360°
2026-05-08 20:50 39.87493 -104.66250 5358 ft 23 kts 55°
2026-05-08 20:50 39.87616 -104.66212 5360 ft 13 kts
2026-05-08 20:50 39.87639 -104.66211 5360 ft 0 kts
2026-05-08 20:51 39.87643 -104.66211 5360 ft 2 kts
2026-05-08 20:51 39.87709 -104.66211 5360 ft 19 kts
2026-05-08 20:51 39.87757 -104.65989 5356 ft 46 kts 91°
2026-05-08 20:51 39.87750 -104.65280 5350 ft 109 kts 91°
2026-05-08 20:52 39.87746 -104.64048 5333 ft 160 kts 88°
2026-05-08 20:52 39.87721 -104.62521 5780 ft 173 kts 90°
2026-05-08 20:52 39.87663 -104.60960 6626 ft 172 kts 92°
2026-05-08 20:52 39.87592 -104.59351 7042 ft 188 kts 93°
2026-05-08 20:53 39.87540 -104.57676 7542 ft 196 kts 85°
2026-05-08 20:53 39.88101 -104.55961 7683 ft 224 kts 41°
2026-05-08 20:53 39.89515 -104.55090 8056 ft 241 kts
2026-05-08 20:53 39.91212 -104.54702 8615 ft 260 kts
2026-05-08 20:54 39.93058 -104.54409 9270 ft 274 kts
2026-05-08 20:54 39.94992 -104.54338 10115 ft 279 kts 355°
2026-05-08 20:54 39.96921 -104.54676 10990 ft 281 kts 346°
2026-05-08 20:54 39.98823 -104.55248 11910 ft 282 kts 342°
2026-05-08 20:55 40.00818 -104.55745 12391 ft 305 kts 357°
2026-05-08 20:55 40.02958 -104.55314 13110 ft 313 kts
2026-05-08 20:55 40.05044 -104.55783 13925 ft 303 kts 329°
2026-05-08 20:55 40.06581 -104.57598 14638 ft 302 kts 301°
2026-05-08 20:56 40.07161 -104.60111 15292 ft 311 kts 274°
2026-05-08 20:56 40.06671 -104.62908 15944 ft 329 kts 247°
2026-05-08 20:56 40.05138 -104.65216 16539 ft 351 kts 220°
2026-05-08 20:56 40.02849 -104.66503 17144 ft 370 kts 197°
2026-05-08 20:57 40.00299 -104.67144 17742 ft 376 kts 196°
2026-05-08 20:57 39.97771 -104.68019 18351 ft 377 kts 204°
2026-05-08 20:57 39.95356 -104.69313 18936 ft 373 kts 213°
2026-05-08 20:57 39.93172 -104.71090 19490 ft 369 kts 224°
2026-05-08 20:58 39.91281 -104.73312 20032 ft 365 kts 233°
2026-05-08 20:58 39.89684 -104.75800 20558 ft 362 kts 240°
2026-05-08 20:58 39.88242 -104.78430 21076 ft 363 kts 242°
2026-05-08 20:58 39.86809 -104.81149 21587 ft 366 kts 242°
2026-05-08 20:59 39.85357 -104.83881 22084 ft 368 kts 242°
2026-05-08 20:59 39.83871 -104.86617 22522 ft 372 kts 241°
2026-05-08 20:59 39.82354 -104.89348 22907 ft 374 kts 241°
2026-05-08 20:59 39.80816 -104.92093 23307 ft 376 kts 240°
2026-05-08 21:00 39.79316 -104.94773 23658 ft 378 kts 240°
2026-05-08 21:00 39.77762 -104.97542 23968 ft 380 kts 240°
2026-05-08 21:00 39.76202 -105.00328 24293 ft 382 kts 240°
2026-05-08 21:00 39.74759 -105.03165 24580 ft 380 kts 246°
2026-05-08 21:01 39.73550 -105.06204 24884 ft 378 kts 252°
2026-05-08 21:01 39.72534 -105.09351 25159 ft 378 kts 254°
2026-05-08 21:01 39.71569 -105.12530 25439 ft 379 kts 255°
2026-05-08 21:01 39.70590 -105.15719 25714 ft 382 kts 254°
2026-05-08 21:02 39.69564 -105.18910 25970 ft 384 kts 253°
2026-05-08 21:02 39.68518 -105.22117 26173 ft 387 kts 253°
2026-05-08 21:02 39.67462 -105.25332 26455 ft 388 kts 253°
2026-05-08 21:02 39.66406 -105.28522 26612 ft 392 kts 253°
2026-05-08 21:03 39.65368 -105.31679 26891 ft 391 kts 253°
2026-05-08 21:03 39.64298 -105.34925 27173 ft 392 kts 253°
2026-05-08 21:03 39.63224 -105.38187 27406 ft 394 kts 252°
2026-05-08 21:03 39.62142 -105.41460 27661 ft 396 kts 253°
2026-05-08 21:04 39.61076 -105.44690 27900 ft 397 kts 253°
2026-05-08 21:04 39.59985 -105.47990 28125 ft 400 kts 253°
2026-05-08 21:04 39.58883 -105.51316 28283 ft 403 kts 252°
2026-05-08 21:04 39.57772 -105.54653 28562 ft 403 kts 252°
2026-05-08 21:05 39.56674 -105.57948 28781 ft 405 kts 253°
2026-05-08 21:05 39.55561 -105.61302 28979 ft 406 kts 253°
2026-05-08 21:05 39.54523 -105.64633 29294 ft 402 kts 255°
2026-05-08 21:05 39.53577 -105.67979 29676 ft 399 kts 256°
2026-05-08 21:06 39.52652 -105.71361 29975 ft 398 kts 256°
2026-05-08 21:06 39.51719 -105.74739 30173 ft 398 kts 256°
2026-05-08 21:06 39.50781 -105.78116 30368 ft 398 kts 256°
2026-05-08 21:06 39.49846 -105.81491 30572 ft 398 kts 256°
2026-05-08 21:07 39.48909 -105.84859 30785 ft 397 kts 256°
2026-05-08 21:07 39.47984 -105.88176 30942 ft 398 kts 256°
2026-05-08 21:07 39.47046 -105.91540 31138 ft 397 kts 256°
2026-05-08 21:07 39.46109 -105.94900 31358 ft 397 kts 256°
2026-05-08 21:08 39.45171 -105.98257 31564 ft 396 kts 256°
2026-05-08 21:08 39.43316 -106.04895 31775 ft 400 kts 256°
2026-05-08 21:09 39.41408 -106.11698 31859 ft 406 kts 256°
2026-05-08 21:09 39.39467 -106.18567 31906 ft 414 kts 255°
2026-05-08 21:10 39.37487 -106.25601 32180 ft 419 kts 256°
2026-05-08 21:10 39.35468 -106.32722 32209 ft 425 kts 255°
2026-05-08 21:11 39.33482 -106.39730 32212 ft 428 kts 255°
2026-05-08 21:11 39.31413 -106.46982 32193 ft 432 kts 255°
2026-05-08 21:12 39.29339 -106.54255 32142 ft 437 kts 255°
2026-05-08 21:12 39.27220 -106.61644 32016 ft 441 kts 255°
2026-05-08 21:13 39.25085 -106.69084 32077 ft 444 kts 254°
2026-05-08 21:13 39.22706 -106.76381 32129 ft 450 kts 249°
2026-05-08 21:14 39.19883 -106.83563 32114 ft 453 kts 248°
2026-05-08 21:14 39.17001 -106.90812 31853 ft 456 kts 248°
2026-05-08 21:15 39.14163 -106.98122 31875 ft 457 kts 248°
2026-05-08 21:15 39.11332 -107.05422 31868 ft 460 kts 248°
2026-05-08 21:16 39.08505 -107.12677 31877 ft 462 kts 248°
2026-05-08 21:16 39.05640 -107.20006 31894 ft 464 kts 248°
2026-05-08 21:17 39.02743 -107.27436 31905 ft 466 kts 248°
2026-05-08 21:17 38.99813 -107.34883 31890 ft 467 kts 248°
2026-05-08 21:18 38.96939 -107.42191 31874 ft 468 kts 248°
2026-05-08 21:18 38.94000 -107.49644 31890 ft 468 kts 248°
2026-05-08 21:19 38.91059 -107.57108 31873 ft 468 kts 248°
2026-05-08 21:19 38.88105 -107.64548 31883 ft 468 kts 247°
2026-05-08 21:20 38.85156 -107.71983 31889 ft 467 kts 248°
2026-05-08 21:20 38.82268 -107.79244 31879 ft 467 kts 247°
2026-05-08 21:20 38.80783 -107.82952 31987 ft 468 kts 247°
2026-05-08 21:21 38.79327 -107.86595 32007 ft 468 kts 247°
2026-05-08 21:21 38.76357 -107.94026 32038 ft 468 kts 247°
2026-05-08 21:22 38.73378 -108.01451 32039 ft 469 kts 247°
2026-05-08 21:22 38.70414 -108.08832 32041 ft 469 kts 247°
2026-05-08 21:22 38.68965 -108.12435 31777 ft 466 kts 247°
2026-05-08 21:23 38.67493 -108.16080 31152 ft 455 kts 247°
2026-05-08 21:23 38.66057 -108.19635 30494 ft 446 kts 247°
2026-05-08 21:23 38.64648 -108.23124 29907 ft 437 kts 247°
2026-05-08 21:23 38.63265 -108.26551 29239 ft 430 kts 246°
2026-05-08 21:24 38.61900 -108.29918 28596 ft 423 kts 247°
2026-05-08 21:24 38.60557 -108.33229 27982 ft 416 kts 246°
2026-05-08 21:24 38.59252 -108.36441 27406 ft 410 kts 247°
2026-05-08 21:24 38.57952 -108.39654 26855 ft 404 kts 246°
2026-05-08 21:25 38.56666 -108.42813 26328 ft 398 kts 246°
2026-05-08 21:25 38.55395 -108.45876 25771 ft 396 kts 243°
2026-05-08 21:25 38.53648 -108.48554 25146 ft 404 kts 224°
2026-05-08 21:25 38.51273 -108.50358 24554 ft 411 kts 204°
2026-05-08 21:26 38.48460 -108.51111 23976 ft 416 kts 189°
2026-05-08 21:26 38.45570 -108.51359 23380 ft 416 kts 185°
2026-05-08 21:26 38.42679 -108.51448 22716 ft 415 kts 184°
2026-05-08 21:26 38.39833 -108.51444 22068 ft 414 kts 182°
2026-05-08 21:27 38.36960 -108.51328 21439 ft 411 kts 180°
2026-05-08 21:27 38.34153 -108.50947 20812 ft 403 kts 167°
2026-05-08 21:27 38.31666 -108.49418 20218 ft 396 kts 143°
2026-05-08 21:27 38.29607 -108.47146 19639 ft 387 kts 138°
2026-05-08 21:28 38.27674 -108.44972 19090 ft 379 kts 141°
2026-05-08 21:28 38.25609 -108.42932 18558 ft 372 kts 146°
2026-05-08 21:28 38.23511 -108.41169 18017 ft 365 kts 149°
2026-05-08 21:28 38.21354 -108.39508 17419 ft 359 kts 150°
2026-05-08 21:29 38.19261 -108.37897 16863 ft 354 kts 150°
2026-05-08 21:29 38.17181 -108.36264 16323 ft 349 kts 150°
2026-05-08 21:29 38.15138 -108.34636 15779 ft 344 kts 149°
2026-05-08 21:29 38.13120 -108.33035 15260 ft 340 kts 149°
2026-05-08 21:30 38.11133 -108.31454 14748 ft 335 kts 150°
2026-05-08 21:30 38.09160 -108.29913 14261 ft 331 kts 150°
2026-05-08 21:30 38.07215 -108.28377 13755 ft 328 kts 150°
2026-05-08 21:30 38.05298 -108.26833 13281 ft 322 kts 148°
2026-05-08 21:31 38.03736 -108.24882 13011 ft 313 kts 124°
2026-05-08 21:31 38.02757 -108.22503 12732 ft 304 kts 112°
2026-05-08 21:31 38.02016 -108.20035 12495 ft 294 kts 110°
2026-05-08 21:31 38.01331 -108.17640 12260 ft 280 kts 110°
2026-05-08 21:32 38.00683 -108.15413 12036 ft 259 kts 111°
2026-05-08 21:32 38.00069 -108.13359 11868 ft 242 kts 109°
2026-05-08 21:32 37.99595 -108.11360 11757 ft 235 kts 104°
2026-05-08 21:32 37.99224 -108.09418 11659 ft 231 kts 103°
2026-05-08 21:33 37.98864 -108.07551 11592 ft 205 kts 102°
2026-05-08 21:33 37.98543 -108.05854 11463 ft 193 kts 102°
2026-05-08 21:33 37.98208 -108.04259 11234 ft 190 kts 106°
2026-05-08 21:33 37.97830 -108.02649 11166 ft 193 kts 105°
2026-05-08 21:34 37.97521 -108.00979 11070 ft 189 kts 99°
2026-05-08 21:34 37.97210 -107.99387 10582 ft 181 kts 107°
2026-05-08 21:34 37.96851 -107.97884 10353 ft 190 kts 105°
2026-05-08 21:34 37.96519 -107.96257 10040 ft 192 kts 104°
2026-05-08 21:35 37.96199 -107.94653 9678 ft 189 kts 104°
2026-05-08 21:35 37.95858 -107.93087 9242 ft 181 kts 108°
2026-05-08 21:35 37.95532 -107.91608 9034 ft 159 kts 104°
2026-05-08 21:35 37.95354 -107.90752 9035 ft 77 kts 105°
2026-05-08 21:36 37.95250 -107.90257 9050 ft 27 kts 104°
2026-05-08 21:36 37.95272 -107.90125 9056 ft 8 kts
2026-05-08 21:36 37.95319 -107.90119 9056 ft 4 kts 353°
2026-05-08 21:36 37.95337 -107.90132 9056 ft 2 kts 319°
2026-05-08 21:37 37.95346 -107.90150 9056 ft 5 kts 295°
2026-05-08 21:37 37.95354 -107.90200 9056 ft 7 kts 281°
2026-05-08 21:37 37.95365 -107.90255 9056 ft 5 kts 297°
2026-05-08 21:37 37.95375 -107.90262 9056 ft 4 kts 356°
2026-05-08 21:38 37.95397 -107.90248 9056 ft 9 kts 57°
2026-05-08 21:38 37.95401 -107.90225 9056 ft 0 kts 101°